Weather History for Rome, GA

Change the Weather History Date:

Saturday, March 1, 2014

  Actual Average Record
Temperature  
Mean Temperature 50 °F 48 °F  
Max Temperature 59 °F 60 °F 79 °F (1997)
Min Temperature 41 °F 36 °F 19 °F (2002)
Degree Days  
Heating Degree Days 15 17  
Month to date heating degree days 15 17  
Since 1 July heating degree days 2842 2639  
Moisture  
Dew Point 36 °F    
Average Humidity 70    
Maximum Humidity 89    
Minimum Humidity 51    
Precipitation  
Precipitation 0.00 in 0.17 in 1.38 in (2007)
Month to date precipitation 0.00 0.17  
Year to date precipitation 7.68 9.86  
Sea Level Pressure  
Sea Level Pressure 30.20 in    
Wind  
Wind Speed 3 mph (ESE)    
Max Wind Speed 9 mph    
Max Gust Speed 13 mph    
Visibility 10 miles    
Events      
T = Trace of Precipitation, MM = Missing Value Source: NWS Daily Summary

Daily Weather History Graph

Daily Weather History Graph

Search for Another Location

Airport:

Trip Planner

Search our weather history database for the weather conditions in past years. The results will help you decide how hot, cold, wet, or windy it might be!

Date:

Astronomy

Mar. 01, 2014 Rise Set
Actual Time 7:09 AM EST 6:36 PM EST
Civil Twilight 6:44 AM EST 7:02 PM EST
Nautical Twilight 6:15 AM EST 7:31 PM EST
Astronomical Twilight 5:46 AM EST 8:00 PM EST
Moon 7:05 AM EST (3/1) 7:19 PM EST (3/1)
Length of Visible Light 12h 17m
Length of Day
11h 27m
New Moon, 0% of the Moon is Illuminated
Mar 1
New Moon
Mar 8
First Quarter
Mar 16
Full
Mar 23
Last Quarter
Mar 30
New

Hourly Weather History & Observations

Time (EST) Temp. Windchill Dew Point Humidity Pressure Visibility Wind Dir Wind Speed Gust Speed Precip Events Conditions
12:53 AM 43.0 °F - 39.9 °F 89% 30.15 in 10.0 mi Calm Calm - N/A   Overcast
1:53 AM 45.0 °F - 36.0 °F 71% 30.14 in 10.0 mi Calm Calm - N/A   Overcast
2:53 AM 45.0 °F 43.5 °F 30.9 °F 58% 30.15 in 10.0 mi ESE 3.5 mph - N/A   Overcast
3:53 AM 44.1 °F - 32.0 °F 63% 30.16 in 10.0 mi Calm Calm - N/A   Overcast
4:53 AM 44.1 °F 42.5 °F 28.9 °F 55% 30.17 in 10.0 mi ESE 3.5 mph - N/A   Overcast
5:53 AM 44.1 °F 42.5 °F 28.9 °F 55% 30.19 in 10.0 mi ESE 3.5 mph - N/A   Overcast
6:53 AM 42.1 °F - 28.9 °F 60% 30.20 in 10.0 mi Calm Calm - N/A   Mostly Cloudy
7:53 AM 44.1 °F 41.5 °F 30.0 °F 58% 30.22 in 10.0 mi Variable 4.6 mph - N/A   Overcast
8:53 AM 45.0 °F 42.6 °F 30.9 °F 58% 30.26 in 10.0 mi SE 4.6 mph - N/A   Overcast
9:53 AM 46.9 °F - 34.0 °F 61% 30.27 in 10.0 mi SSE 3.5 mph - N/A   Overcast
10:53 AM 48.0 °F - 35.1 °F 61% 30.26 in 10.0 mi SE 8.1 mph - N/A   Overcast
11:53 AM 50.0 °F - 36.0 °F 59% 30.27 in 10.0 mi SSE 5.8 mph - N/A   Overcast
12:00 PM 50.0 °F - 35.6 °F 58% 30.27 in 10.0 mi Variable 4.6 mph - N/A   Overcast
12:25 PM 51.8 °F - 35.6 °F 54% 30.25 in 10.0 mi SE 4.6 mph - N/A   Overcast
12:53 PM 52.0 °F - 37.0 °F 57% 30.24 in 10.0 mi SE 5.8 mph - N/A   Overcast
1:53 PM 55.0 °F - 37.9 °F 53% 30.20 in 10.0 mi SSE 5.8 mph - N/A   Overcast
2:53 PM 55.9 °F - 37.9 °F 51% 30.17 in 10.0 mi South 5.8 mph - N/A   Overcast
3:53 PM 57.0 °F - 39.0 °F 51% 30.18 in 10.0 mi South 4.6 mph - N/A   Overcast
4:53 PM 57.9 °F - 39.0 °F 49% 30.16 in 10.0 mi East 3.5 mph - N/A   Partly Cloudy
5:53 PM 57.9 °F - 39.9 °F 51% 30.17 in 10.0 mi NE 3.5 mph - N/A   Overcast
6:53 PM 55.9 °F - 41.0 °F 57% 30.19 in 10.0 mi NE 3.5 mph - N/A   Overcast
7:53 PM 55.0 °F - 39.9 °F 57% 30.19 in 10.0 mi NE 3.5 mph - N/A   Overcast
8:53 PM 53.1 °F - 39.9 °F 61% 30.20 in 10.0 mi Calm Calm - N/A   Overcast
9:53 PM 48.9 °F - 39.9 °F 71% 30.21 in 10.0 mi Calm Calm - N/A   Clear
10:53 PM 44.1 °F - 39.0 °F 82% 30.20 in 10.0 mi Calm Calm - N/A   Clear
11:53 PM 42.1 °F - 37.9 °F 85% 30.19 in 10.0 mi Calm Calm - N/A   Clear